WA2GUG Weather Reports


Display with metric or nautical units.
time (UTC)temp
F
wind
direction
speed
MPH
gust
MPH
rain 1hr
in
rain 24hr
in
rain mn
in
humidity
%
barometer
mb
20220520010837 56 315 0.0 0.0 0.00 0.00 0.00 1007.0
20220520010337 56 315 0.0 0.0 0.00 0.00 0.00 1007.0
20220520004837 58 45 1.0 1.0 0.00 0.00 0.00 1007.0
20220520004338 58 33 0.0 1.0 0.00 0.00 0.00 1007.0
20220520002836 59 45 0.0 1.0 0.00 0.00 0.00 1007.0
20220520001836 60 0.0 2.0 0.00 0.00 0.00 1433.0
20220519235338 64 0 1.0 3.0 0.00 0.00 0.00 1006.0
20220519233836 65 337 0.0 2.0 0.00 0.00 0.00 1006.0
20220519232337 68 157 0.0 2.0 0.00 0.00 0.00 1006.0
20220519230836 76 0 1.0 4.0 0.00 0.00 0.00 1005.0
20220519230336 76 1.0 4.0 0.00 0.00 0.00 1005.0
20220519225337 81 0.0 0.0 0.00 0.00 0.00 1005.0
20220519224335 77 0.0 1.0 0.00 0.00 0.00 1005.0
20220519222838 73 0.0 0.0 0.00 0.00 0.00 1005.0
20220519214836 73 0 1.0 2.0 0.00 0.00 0.00 1005.0
20220519203336 70 1.0 3.0 0.00 0.00 0.00 1478.0
20220519201837 74 315 1.0 3.0 0.00 0.00 0.00 1005.0
20220519200837 75 225 1.0 4.0 0.00 0.00 0.00 1005.0
20220519192838 69 1.0 3.0 0.00 0.00 0.00 1005.0
20220519185836 68 1.0 2.0 0.00 0.00 0.00 1005.0
20220519185336 70 1.0 3.0 0.00 0.00 0.00 1005.0
20220519184838 72 90 1.0 3.0 0.00 0.00 0.00 1005.0
20220519183335 78 180 1.0 3.0 0.00 0.00 0.00 1005.0
20220519172336 75 45 99.0 99.0 0.00 0.00 0.00 1005.0
20220519171836 75 90 2.0 3.0 0.00 0.00 0.00 1005.0
20220519165836 70 90 2.0 4.0 0.00 0.00 0.00
20220519164336 79 45 2.0 5.0 0.00 0.00 0.00 1005.0
20220519161336 69 135 2.0 3.0 0.00 0.00 0.00 1005.0
20220519160836 71 2.0 3.0 0.00 0.00 0.00 1005.0
20220519160336 70 1.0 5.0 0.00 0.00 0.00 1005.0
20220519153335 68 2.0 3.0 0.00 0.00 0.00 1005.0
20220519152335 63 270 1.0 4.0 0.00 0.00 0.00 1006.0
20220519150335 60 1.0 3.0 0.00 0.00 0.00 1006.0
20220519140335 54 1.0 4.0 0.00 0.00 0.00 1391.0
20220519131336 53 1.0 3.0 0.00 0.00 0.00 1007.0
20220519130335 52 135 1.0 3.0 0.00 0.00 0.00 1007.0
20220519120335 51 1.0 3.0 0.00 0.00 0.00 1007.0
20220519114837 50 0 1.0 2.0 0.00 0.00 0.00 1007.0
20220519114336 50 1.0 2.0 0.00 0.00 0.00 1007.0
20220519111335 50 270 0.0 1.0 0.00 0.00 0.00 1007.0
20220519110835 50 90 0.0 1.0 0.00 0.00 0.00 1007.0
20220519104335 50 135 0.0 1.0 0.00 0.00 0.00 1008.0
20220519100836 50 1.0 1.0 0.00 0.00 0.00 3826.0
20220519091834 50 0.0 0.0 0.00 0.00 0.00 1008.0
20220519090334 50 61 0.0 1.0 0.00 0.00 0.00 1008.0
20220519083335 50 337 0.0 0.0 0.00 0.00 0.00 1008.0
20220519082837 50 0.0 1.0 0.00 0.00 0.00 1008.0
20220519081335 50 1.0 1.0 0.00 0.00 0.00 1008.0
20220519071835 50 0.0 0.0 0.00 0.00 0.00 1008.0
20220519064834 50 0.0 1.0 0.00 0.00 0.00 1009.0
20220519061335 51 0.0 0.0 0.00 0.00 0.00 1009.0
20220519055335 51 0.0 0.0 0.00 0.00 0.00 1009.0
20220519051334 52 112 0.0 0.0 0.00 0.00 0.00
20220519050334 52 45 0.0 99.0 0.00 0.00 0.00 1010.0
20220519044335 53 112 0.0 77.0 0.00 0.00 0.00 1010.0
20220519043334 53 0.0 1.0 0.00 0.00 0.00 1010.0